User: anonymous   Login
Location: Unspecified
(0.0000°N, 0.0000°E)
Time: 02:45:34
(UTC+00:00)
Language:

COSMOS 2463 - Orbit

View from above orbital plane
View from above orbital plane
View from above satellite
View from above satellite

Ground track
Ground track

The orbit is defined by the following mean orbital elements,

1 36519U          26109.75073750 +.00000000 +00000-0 +10190-4 0 00004
2 36519  82.9569 292.6532 0034893 293.0977  77.2680 13.71661724    06
Epoch (UTC): 19 April 2026 18:01:03
Eccentricity: 0.0034893
inclination: 82.9569°
perigee height: 968 km
apogee height: 1019 km
right ascension of ascending node: 292.6532°
argument of perigee: 293.0977°
revolutions per day: 13.71661724
mean anomaly at epoch: 77.2680°

The dashed part of the orbit path shows where the satellite is in the earth's shadow,  

DLR